Change the Weather History Date:

Sunday, August 28, 2011

  Actual Average Record
Temperature  
Mean Temperature 50 °F -  
Max Temperature 54 °F 58 °F 74 °F (1983)
Min Temperature 48 °F 47 °F 23 °F (1971)
Degree Days  
Heating Degree Days 14    
Moisture  
Dew Point 48 °F    
Average Humidity 92    
Maximum Humidity 100    
Minimum Humidity 86    
Precipitation  
Precipitation 0.14 in - - ()
Sea Level Pressure  
Sea Level Pressure 29.87 in    
Wind  
Wind Speed 2 mph (SW)    
Max Wind Speed 13 mph    
Max Gust Speed 17 mph    
Visibility 9 miles    
Events Rain    
Averages and records for this station are not official NWS values.
T = Trace of Precipitation, MM = Missing Value Source: NWS Daily Summary

Daily Weather History Graph

Daily Weather History Graph

Search for Another Location

Airport or City:

Trip Planner

Search our weather history database for the weather conditions in past years. The results will help you decide how hot, cold, wet, or windy it might be!

Date:

Astronomy

Aug. 28, 2011 Rise Set
Actual Time 5:48 AM AKDT 8:15 PM AKDT
Civil Twilight 5:02 AM AKDT 9:00 PM AKDT
Nautical Twilight 4:03 AM AKDT 9:59 PM AKDT
Astronomical Twilight 2:41 AM AKDT 11:18 PM AKDT
Moon 5:30 AM AKDT (8/28) 7:29 PM AKDT (8/28)
Length of Visible Light 15h 57m
Length of Day
14h 27m
Waning Crescent, 0% of the Moon is Illuminated
Aug 28
Waning Crescent
Aug 28
New
Sep 4
First Quarter
Sep 12
Full
Sep 20
Last Quarter

Hourly Weather History & Observations

Time (AKDT) Temp. Dew Point Humidity Pressure Visibility Wind Dir Wind Speed Gust Speed Precip Events Conditions
12:53 AM 48.9 °F 48.0 °F 97% 29.96 in 3.0 mi Calm Calm - N/A   Overcast
1:53 AM 48.9 °F 48.0 °F 97% 29.95 in 8.0 mi Calm Calm - 0.01 in Rain Light Rain
2:53 AM 48.9 °F 48.0 °F 97% 29.94 in 10.0 mi Calm Calm - 0.02 in Rain Light Rain
3:53 AM 48.0 °F 48.0 °F 100% 29.92 in 10.0 mi Calm Calm - 0.00 in   Overcast
4:53 AM 48.0 °F 48.0 °F 100% 29.91 in 8.0 mi Calm Calm - 0.01 in Rain Light Rain
5:02 AM 48.2 °F 46.4 °F 93% 29.90 in 7.0 mi Calm Calm - 0.01 in Rain Light Rain
5:53 AM 48.0 °F 46.9 °F 96% 29.89 in 10.0 mi Calm Calm - 0.03 in Rain Light Rain
6:53 AM 48.9 °F 48.0 °F 97% 29.89 in 10.0 mi Calm Calm - 0.02 in Rain Light Rain
7:53 AM 48.9 °F 48.0 °F 97% 29.88 in 10.0 mi Calm Calm - 0.00 in   Overcast
8:53 AM 50.0 °F 48.9 °F 96% 29.88 in 10.0 mi Calm Calm - 0.01 in   Overcast
9:53 AM 51.1 °F 48.9 °F 92% 29.87 in 10.0 mi Calm Calm - 0.00 in   Overcast
10:53 AM 51.1 °F 48.9 °F 92% 29.86 in 10.0 mi Calm Calm - 0.00 in Rain Light Rain
11:53 AM 52.0 °F 50.0 °F 93% 29.84 in 10.0 mi Calm Calm - 0.00 in   Overcast
12:53 PM 50.0 °F 46.9 °F 89% 29.84 in 10.0 mi SSW 9.2 mph - 0.00 in Rain Light Rain
1:53 PM 51.1 °F 48.0 °F 89% 29.84 in 10.0 mi SW 3.5 mph - 0.02 in   Overcast
2:53 PM 48.9 °F 46.9 °F 93% 29.83 in 10.0 mi SW 5.8 mph - 0.02 in Rain Light Rain
3:53 PM 51.1 °F 48.0 °F 89% 29.81 in 10.0 mi SSW 9.2 mph - 0.00 in   Mostly Cloudy
4:53 PM 51.1 °F 48.0 °F 89% 29.81 in 10.0 mi WSW 10.4 mph - N/A   Scattered Clouds
5:53 PM 53.1 °F 48.9 °F 86% 29.81 in 10.0 mi SW 12.7 mph - N/A   Overcast
6:53 PM 53.1 °F 48.9 °F 86% 29.82 in 10.0 mi SW 6.9 mph 17.3 mph N/A   Overcast
7:53 PM 52.0 °F 48.9 °F 89% 29.84 in 10.0 mi SSW 10.4 mph - 0.00 in   Overcast
8:53 PM 53.1 °F 48.9 °F 86% 29.84 in 10.0 mi SSW 12.7 mph - 0.00 in Rain Light Rain
9:53 PM 53.1 °F 48.9 °F 86% 29.85 in 10.0 mi SSW 8.1 mph - 0.00 in Rain Light Rain
10:53 PM 52.0 °F 48.0 °F 86% 29.85 in 10.0 mi Calm Calm - 0.00 in   Overcast
11:53 PM 52.0 °F 48.0 °F 86% 29.87 in 10.0 mi WNW 4.6 mph - N/A   Overcast